Погода в Климовке

Россия / Самарская область     53°29′18″N   49°00′37″E
темп.,
°C
ветер,
м/с
пор.,
м/с
влажн.,
%
обл.,
%
осадки,
мм/ч
давл.,
гПа
погр.,
м
28 июня, вт
вт2801:00+18сз33915 0.0 101343
04:00+16с599714 0.0 1013259
07:00+14ссв699135 0.0 1015472
10:00+15ссв68660 0.0 1016906
13:00+17ссв67524 0.0 10171450
16:00+17с68503 0.0 10171734
19:00+16ссв58665 0.0 10181238
22:00+11ссв35735 0.0 101989
29 июня, ср
ср2901:00+10ссз33755 0.0 101955
04:00+9ссз34841 0.0 101970
07:00+12с47755 0.0 1020475
10:00+14с686415 0.0 10191239
13:00+16ссв685667 0.0 10191577
16:00+17с68525 0.0 10191555
19:00+17ссз59615 0.0 1017606
22:00+13зсз35714 0.0 101772
30 июня, чт
чт3001:00+11зсз34760 0.0 101650
04:00+10зсз3677100 0.0 1015107
07:00+13зсз4972100 0.0 1014254
10:00+18сз6855100 0.0 1013851
13:00+20ссз794697 0.0 10122287
16:00+20ссз794791 0.0 10111943
19:00+16с59662 0.0 1012934
22:00+13с4875100 0.2 1013292
1 июля, пт
пт101:00+11с51073100 0.1 1014383
04:00+10с610740 0.1 1015406
07:00+12с711730 0.0 1016916
10:00+14с911605 0.0 10161267
13:00+16с81058100 0.0 10161653
16:00+17с7105776 0.0 10171657
19:00+17с376574 0.0 1017812
22:00+13зсз33715 0.0 101737
2 июля, сб
сб201:00+12зсз34745 0.0 101669
04:00+11зсз34765 0.0 101660
07:00+14зсз25695 0.0 1016181
10:00+20ссз465573 0.0 1016677
13:00+19ссв4562100 0.0 1015412
16:00+18с117363 0.0 101539
19:00+20ююв236994 0.0 1013145
22:00+16зюз2388100 0.4 101355